KB7YYZ Weather Reports


Display with metric or nautical units.
time (UTC)temp
F
wind
direction
speed
MPH
gust
MPH
rain 1hr
in
rain 24hr
in
rain mn
in
humidity
%
barometer
mb
20260502224044 90 126 1.0 1.0 0.00 0.00 0.00 12 1005.3
20260502223021 90 303 1.0 1.0 0.00 0.00 0.00 12 1005.4
20260502222022 90 162 1.0 2.0 0.00 0.00 0.00 13 1005.5
20260502221030 90 211 2.0 2.0 0.00 0.00 0.00 13 1005.7
20260502220027 90 249 2.0 2.0 0.00 0.00 0.00 13 1005.8
20260502215035 90 87 2.0 2.0 0.00 0.00 0.00 12 1006.1
20260502214039 90 186 2.0 2.0 0.00 0.00 0.00 13 1006.3
20260502213034 90 250 2.0 2.0 0.00 0.00 0.00 13 1006.4
20260502212025 90 140 1.0 1.0 0.00 0.00 0.00 14 1006.4
20260502211028 90 272 2.0 2.0 0.00 0.00 0.00 15 1006.4
20260502210031 89 360 1.0 1.0 0.00 0.00 0.00 15 1006.7
20260502205051 89 133 1.0 2.0 0.00 0.00 0.00 16 1006.9
20260502204030 90 98 2.0 2.0 0.00 0.00 0.00 16 1007.0
20260502203022 90 230 2.0 2.0 0.00 0.00 0.00 18 1007.0
20260502202023 89 217 1.0 2.0 0.00 0.00 0.00 16 1007.3
20260502201022 90 58 1.0 1.0 0.00 0.00 0.00 16 1007.4
20260502200019 89 252 2.0 2.0 0.00 0.00 0.00 17 1007.5
20260502195026 89 260 2.0 3.0 0.00 0.00 0.00 18 1007.7
20260502194019 89 219 2.0 3.0 0.00 0.00 0.00 18 1007.7
20260502193025 88 217 2.0 2.0 0.00 0.00 0.00 18 1007.9
20260502192032 88 131 2.0 2.0 0.00 0.00 0.00 19 1008.0
20260502191037 87 219 2.0 2.0 0.00 0.00 0.00 20 1008.1
20260502190023 87 143 2.0 2.0 0.00 0.00 0.00 21 1008.3
20260502185038 87 191 3.0 3.0 0.00 0.00 0.00 21 1008.4
20260502184022 87 204 2.0 3.0 0.00 0.00 0.00 22 1008.5
20260502183030 86 216 2.0 3.0 0.00 0.00 0.00 22 1008.8
20260502182034 86 259 3.0 3.0 0.00 0.00 0.00 23 1008.9
20260502181019 85 148 2.0 3.0 0.00 0.00 0.00 23 1008.9
20260502180114 85 179 3.0 3.0 0.00 0.00 0.00 23 1009.0
20260502164022 82 199 4.0 4.0 0.00 0.00 0.00 26 1009.1
20260502163041 82 180 3.0 4.0 0.00 0.00 0.00 27 1009.0
20260502162048 82 130 4.0 4.0 0.00 0.00 0.00 27 1008.9
20260502161042 81 181 3.0 3.0 0.00 0.00 0.00 27 1008.9
20260502152044 77 40 1.0 1.0 0.00 0.00 0.00 27 1008.9
20260502151049 77 26 2.0 2.0 0.00 0.00 0.00 28 1008.8
20260502123043 67 0.0 0.0 0.00 0.00 0.00 30 1007.5
20260502122020 67 0.0 0.0 0.00 0.00 0.00 30 1007.4
20260502121025 67 0.0 0.0 0.00 0.00 0.00 28 1007.4
20260502115037 68 0.0 0.0 0.00 0.00 0.00 27 1007.3
20260502114035 69 45 0.0 0.0 0.00 0.00 0.00 27 1007.2
20260502113053 69 35 0.0 0.0 0.00 0.00 0.00 27 1007.2
20260502112023 69 0.0 0.0 0.00 0.00 0.00 27 1007.2
20260502111023 69 0.0 0.0 0.00 0.00 0.00 26 1007.3
20260502110035 69 10 0.0 0.0 0.00 0.00 0.00 26 1007.3
20260502105043 70 2 0.0 0.0 0.00 0.00 0.00 26 1007.4
20260502104029 70 14 0.0 0.0 0.00 0.00 0.00 26 1007.2
20260502103020 70 327 0.0 0.0 0.00 0.00 0.00 26 1007.1
20260502102020 70 342 1.0 1.0 0.00 0.00 0.00 26 1007.0
20260502101032 70 44 1.0 1.0 0.00 0.00 0.00 26 1007.0
20260502091036 72 0.0 0.0 0.00 0.00 0.00 24 1006.9
20260502071051 75 35 0.0 0.0 0.00 0.00 0.00 23 1007.0
20260502070036 76 37 0.0 0.0 0.00 0.00 0.00 23 1007.0
20260502065022 76 45 0.0 0.0 0.00 0.00 0.00 23 1007.1
20260502064027 76 8 0.0 0.0 0.00 0.00 0.00 23 1006.9
20260502063033 76 21 0.0 0.0 0.00 0.00 0.00 23 1006.8
20260502062020 76 20 0.0 0.0 0.00 0.00 0.00 23 1006.7
20260502061026 76 40 0.0 1.0 0.00 0.00 0.00 23 1006.7
20260502060023 77 0.0 0.0 0.00 0.00 0.00 23 1006.6
20260502055023 77 350 0.0 0.0 0.00 0.00 0.00 23 1006.6
20260502054041 77 16 0.0 0.0 0.00 0.00 0.00 22 1006.5
20260502053045 78 19 0.0 0.0 0.00 0.00 0.00 22 1006.5
20260502052044 78 6 0.0 1.0 0.00 0.00 0.00 22
20260502051047 78 24 0.0 1.0 0.00 0.00 0.00 22 1006.4
20260502050101 78 0.0 0.0 0.00 0.00 0.00 22 1006.4
20260502045026 78 352 0.0 0.0 0.00 0.00 0.00 22 1006.3
20260502044103 79 358 0.0 1.0 0.00 0.00 0.00 23 1006.3
20260502043032 79 22 0.0 1.0 0.00 0.00 0.00 22 1006.1
20260502042127 79 23 0.0 0.0 0.00 0.00 0.00 22
20260502041048 79 0.0 0.0 0.00 0.00 0.00 22 1005.8
20260502040023 79 0.0 0.0 0.00 0.00 0.00 21 1005.7
20260502035049 80 0.0 0.0 0.00 0.00 0.00 21 1005.5
20260502034036 80 0.0 0.0 0.00 0.00 0.00 21 1005.4
20260502033037 81 0.0 0.0 0.00 0.00 0.00 21 1005.3
20260502032024 81 0.0 0.0 0.00 0.00 0.00 21 1005.1
20260502031021 81 16 0.0 0.0 0.00 0.00 0.00 20 1004.9
20260502030027 82 6 0.0 0.0 0.00 0.00 0.00 21 1004.7
20260502025033 82 347 0.0 0.0 0.00 0.00 0.00 20 1004.5
20260502024029 83 350 0.0 1.0 0.00 0.00 0.00 19 1004.4
20260502023021 83 10 0.0 0.0 0.00 0.00 0.00 19 1004.3
20260502022023 84 0.0 0.0 0.00 0.00 0.00 19 1004.2
20260502021024 84 312 1.0 1.0 0.00 0.00 0.00 19 1004.1
20260502020018 85 346 1.0 1.0 0.00 0.00 0.00 19 1004.0
20260502015036 85 352 1.0 1.0 0.00 0.00 0.00 17 1003.9
20260502014042 86 308 1.0 2.0 0.00 0.00 0.00 17 1003.9
20260502013036 86 329 2.0 2.0 0.00 0.00 0.00 17 1003.8
20260502012042 87 339 1.0 1.0 0.00 0.00 0.00 17 1003.8
20260502011026 87 331 2.0 2.0 0.00 0.00 0.00 16 1003.8
20260502010033 87 324 2.0 2.0 0.00 0.00 0.00 16 1003.6
20260502005039 87 313 1.0 2.0 0.00 0.00 0.00 16 1003.5
20260502004030 87 274 2.0 2.0 0.00 0.00 0.00 16 1003.6
20260502003046 88 340 2.0 2.0 0.00 0.00 0.00 16 1003.6
20260502002027 88 317 1.0 1.0 0.00 0.00 0.00 16 1003.6
20260502001110 88 281 2.0 2.0 0.00 0.00 0.00 16 1003.6
20260502000037 88 234 2.0 2.0 0.00 0.00 0.00 16 1003.7
20260501235029 89 301 1.0 2.0 0.00 0.00 0.00 17 1003.6
20260501234034 89 280 1.0 1.0 0.00 0.00 0.00 18 1003.6
20260501233022 89 310 2.0 2.0 0.00 0.00 0.00 18 1003.7
20260501232030 89 267 1.0 2.0 0.00 0.00 0.00 18 1003.7
20260501231027 89 272 2.0 2.0 0.00 0.00 0.00 18 1003.7
20260501230026 89 328 2.0 2.0 0.00 0.00 0.00 18 1003.9
20260501225045 89 330 2.0 2.0 0.00 0.00 0.00 18 1004.0